STARLINK-4532 (53424 NORAD) Tracking and Keplerian Element Data

This shows tracking and keplerian element data for the satellite.

Feedback or suggestion? Click here.




ElementValue
Catalog53424
NameSTARLINK-4532
Epoch Orbit797
Epoch Day270.25001157
Epoch Year2022
RAAN11.5563
Inclination53.2189
Eccentricity0.000174
Argument of Perigee39.6023
Mean Anonmoly239.046
Mean Motion15.49887111
Decay Rate0.00043777
L11 53424U 22097AN 22270.25001157 .00043777 00000+0 77488-3 0 9996
L22 53424 53.2189 11.5563 0001740 39.6023 239.0460 15.49887111 7976

Live tracking and technical data element details for STARLINK-4532 (NORAD 53424). STARLINK-4532 can be tracked NOW for your location showing map with azimuth and elevation plus other details from your city location.

Track the satellite on the map from your city or location and see movement details for azimuth, elevation, latitude, longitude, range, height, and movement on the map or in text.







IsCatalogInMostPopularTable: catalog: 53424, numindb: 2
Update: records affected: 1



GetName: 53424 STARLINK-4532

Hit Count: updated at: Wed, 28 Sep 2022 22:49:48 GMT